Tracking 19563 objects as of 20-Mar-2019
HD Live streaming from Space Station
objects crossing your sky now

YURI 2A (BS-2A)

Track YURI 2A (BS-2A) now!
YURI 2A (BS-2A) is classified as:


NORAD ID: 14659
Int'l Code: 1984-005A
Perigee: 36,109.0 km
Apogee: 36,168.3 km
Inclination: 14.7 °
Period: 1,453.8 minutes
Semi major axis: 42509 km
RCS: 5.0178 m2 (large)
Launch date: January 23, 1984
Source: Japan (JPN)
Launch site: TANEGASHIMA SPACE CENTER (TNSTA)
aabbcc
Your satellite tracking list
Your tracking list is empty




NASA's NSSDC Master Catalog

Two Line Element Set (TLE):
1 14659U 84005A   19076.99142872 -.00000234 +00000-0 +00000-0 0  9997
2 14659 014.6556 346.1659 0006979 180.7387 355.9875 00.99053966092081
Source of the keplerian elements: AFSPC